Regional Weather Roundup
Issued by NWS

Home | Current Version | Previous Version | Text Only | Print | Product List | Glossary Off
Versions: 1 2 3 4 5 6 7 8 9 10 11 12 13 14 15 16 17 18 19 20 21 22 23 24 25 26 27 28 29 30 31 32 33 34 35 36 37 38 39 40 41 42 43 44 45 46 47 48 49 50

452
ASUS43 KLMK 242302
RWRKY
KENTUCKY REGIONAL WEATHER ROUNDUP
NATIONAL WEATHER SERVICE LOUISVILLE KY
700 PM EDT WED MAY 24 2017

NOTE "FAIR" INDICATES FEW OR NO CLOUDS BELOW 12,000 FEET
WITH NO SIGNIFICANT WEATHER AND/OR OBSTRUCTIONS TO VISIBILITY.

KYZ001>023-026-027-061>063-070>075-250000-
WESTERN AND SOUTH CENTRAL KENTUCKY

CITY           SKY/WX    TMP DP  RH WIND       PRES   REMARKS
PADUCAH        SUNNY     68  48  48 NW12G17   29.51S
HENDERSON      LGT RAIN  60  57  89 NW6       29.51S
OWENSBORO      CLOUDY    59  54  83 NW12      29.50R
HOPKINSVILLE   MOSUNNY   62  55  77 NW5       29.51S
BOWLING GREEN  CLOUDY    59  56  89 W8        29.51R
GLASGOW        NOT AVBL
$$

KYZ024-025-028>034-038-045-046-053-250000-
NORTH CENTRAL KENTUCKY

CITY           SKY/WX    TMP DP  RH WIND       PRES   REMARKS
LOUISVILLE/SDF HVY RAIN  60  58  92 W8        29.41R
LOUISVILLE/LOU RAIN      60  60 100 W9        29.40R FOG
FORT KNOX      RAIN      57  57  99 W9        29.42R FOG
$$

KYZ035>037-039>044-047>052-055>060-089>105-250000-
NORTHEAST KENTUCKY

CITY           SKY/WX    TMP DP  RH WIND       PRES   REMARKS
LEXINGTON      CLOUDY    67  61  81 S6        29.35F
COVINGTON      LGT RAIN  60  58  92 N13       29.37R
FRANKFORT      RAIN      63  58  83 W8        29.35R
$$

KYZ054-064>069-076>088-106>120-250000-
SOUTHEAST KENTUCKY

CITY           SKY/WX    TMP DP  RH WIND       PRES   REMARKS
JACKSON        LGT RAIN  65  58  78 VRB3      29.41R
LONDON         PTSUNNY   64  52  64 SW16G30   29.43R
SOMERSET       NOT AVBL
MIDDLESBORO    SUNNY     68  55  63 SW8       29.46R
MONTICELLO     CLOUDY    59  56  89 W21G30    29.48R
$$





USA.gov is the U.S. government's official web portal to all federal, state and local government web resources and services.